• In Schweiz
  • Länderverzeichnis
  • Für 7 Tage
  • Wassertemperatur
  • Satellitenkarten
  • Wetterkarte
  • Widgets
  • user-avatar
    Anmelden

    Stündliche Wetter Chester

    Heute, 18 Februar, Sonntag

    Zeit Temperatur Niederschläge Wind Luftdruck Luftfeuchtigkeit
    00:00 +5°C° 0 mm 2 m/S 764 mmHg 90%
    01:00 +5°C° 0 mm 2 m/S 764 mmHg 91%
    02:00 +4°C° 0 mm 3 m/S 764 mmHg 91%
    03:00 +4°C° 0 mm 3 m/S 764 mmHg 92%
    04:00 +4°C° 0,1 mm 3 m/S 764 mmHg 93%
    05:00 +4°C° 0,1 mm 3 m/S 763 mmHg 93%
    06:00 +5°C° 0,1 mm 3 m/S 763 mmHg 94%
    07:00 +5°C° 0,1 mm 3 m/S 763 mmHg 94%
    08:00 +5°C° 0,1 mm 3 m/S 764 mmHg 94%
    09:00 +5°C° 0,1 mm 3 m/S 764 mmHg 93%
    10:00 +7°C° 0 mm 3 m/S 764 mmHg 91%
    11:00 +7°C° 0 mm 4 m/S 763 mmHg 88%
    12:00 +8°C° 0 mm 4 m/S 763 mmHg 85%
    13:00 +8°C° 0 mm 4 m/S 763 mmHg 84%
    14:00 +9°C° 0 mm 3 m/S 763 mmHg 84%
    15:00 +10°C° 0 mm 3 m/S 763 mmHg 83%
    16:00 +9°C° 0 mm 3 m/S 763 mmHg 85%
    17:00 +9°C° 0 mm 3 m/S 763 mmHg 88%
    18:00 +8°C° 0 mm 3 m/S 763 mmHg 90%
    19:00 +8°C° 0 mm 3 m/S 763 mmHg 91%
    20:00 +8°C° 0 mm 3 m/S 763 mmHg 91%
    21:00 +8°C° 0 mm 3 m/S 763 mmHg 92%
    22:00 +8°C° 0,1 mm 3 m/S 763 mmHg 93%
    23:00 +8°C° 0,1 mm 3 m/S 763 mmHg 93%

    Morgen, 19 Februar, Montag

    Zeit Temperatur Niederschläge Wind Luftdruck Luftfeuchtigkeit
    00:00 +8°C° 0,1 mm 3 m/S 763 mmHg 94%
    01:00 +8°C° 0,3 mm 3 m/S 763 mmHg 95%
    02:00 +8°C° 0,3 mm 3 m/S 762 mmHg 95%
    03:00 +8°C° 0,3 mm 3 m/S 762 mmHg 96%
    04:00 +8°C° 0,1 mm 2 m/S 762 mmHg 96%
    05:00 +8°C° 0,1 mm 2 m/S 762 mmHg 97%
    06:00 +8°C° 0,1 mm 2 m/S 762 mmHg 97%
    07:00 +8°C° 0 mm 2 m/S 762 mmHg 97%
    08:00 +9°C° 0 mm 2 m/S 762 mmHg 97%
    09:00 +9°C° 0 mm 2 m/S 762 mmHg 97%
    10:00 +10°C° 0 mm 3 m/S 763 mmHg 94%
    11:00 +10°C° 0 mm 3 m/S 763 mmHg 92%
    12:00 +11°C° 0 mm 4 m/S 763 mmHg 90%
    13:00 +11°C° 0 mm 4 m/S 763 mmHg 89%
    14:00 +11°C° 0 mm 4 m/S 763 mmHg 88%
    15:00 +11°C° 0 mm 4 m/S 762 mmHg 88%
    16:00 +10°C° 0 mm 3 m/S 763 mmHg 89%
    17:00 +10°C° 0 mm 3 m/S 763 mmHg 91%
    18:00 +9°C° 0 mm 3 m/S 763 mmHg 93%
    19:00 +9°C° 0 mm 3 m/S 763 mmHg 93%
    20:00 +8°C° 0 mm 3 m/S 763 mmHg 93%
    21:00 +8°C° 0 mm 3 m/S 764 mmHg 93%
    22:00 +7°C° 0 mm 4 m/S 764 mmHg 93%
    23:00 +7°C° 0 mm 4 m/S 764 mmHg 94%

    übermorgen, 20 Februar, Dienstag

    Zeit Temperatur Niederschläge Wind Luftdruck Luftfeuchtigkeit
    00:00 +7°C° 0 mm 5 m/S 764 mmHg 94%
    01:00 +7°C° 0,2 mm 5 m/S 764 mmHg 92%
    02:00 +7°C° 0,2 mm 6 m/S 765 mmHg 91%
    03:00 +7°C° 0,2 mm 6 m/S 765 mmHg 89%
    04:00 +5°C° 0 mm 6 m/S 765 mmHg 88%
    05:00 +5°C° 0 mm 6 m/S 766 mmHg 86%
    06:00 +4°C° 0 mm 6 m/S 766 mmHg 85%
    07:00 +4°C° 0 mm 6 m/S 767 mmHg 83%
    08:00 +5°C° 0 mm 6 m/S 767 mmHg 81%
    09:00 +5°C° 0 mm 6 m/S 768 mmHg 80%
    10:00 +5°C° 0 mm 6 m/S 768 mmHg 76%
    11:00 +6°C° 0 mm 7 m/S 768 mmHg 72%
    12:00 +8°C° 0 mm 7 m/S 768 mmHg 68%
    13:00 +8°C° 0 mm 6 m/S 769 mmHg 67%
    14:00 +8°C° 0 mm 6 m/S 769 mmHg 67%
    15:00 +8°C° 0 mm 6 m/S 769 mmHg 67%
    16:00 +7°C° 0 mm 5 m/S 769 mmHg 70%
    17:00 +6°C° 0 mm 4 m/S 769 mmHg 74%
    18:00 +5°C° 0 mm 3 m/S 770 mmHg 78%
    19:00 +5°C° 0 mm 3 m/S 770 mmHg 79%
    20:00 +4°C° 0 mm 3 m/S 771 mmHg 81%
    21:00 +4°C° 0 mm 3 m/S 771 mmHg 83%
    22:00 +3°C° 0 mm 3 m/S 771 mmHg 84%
    23:00 +3°C° 0 mm 3 m/S 771 mmHg 85%

    21 Februar, Mittwoch

    Zeit Temperatur Niederschläge Wind Luftdruck Luftfeuchtigkeit
    00:00 +2°C° 0 mm 3 m/S 771 mmHg 86%
    01:00 +2°C° 0 mm 3 m/S 771 mmHg 88%
    02:00 +3°C° 0 mm 2 m/S 771 mmHg 89%
    03:00 +3°C° 0 mm 2 m/S 771 mmHg 90%
    04:00 +2°C° 0 mm 2 m/S 771 mmHg 91%
    05:00 +2°C° 0 mm 2 m/S 771 mmHg 92%
    06:00 +2°C° 0 mm 2 m/S 771 mmHg 92%
    07:00 +3°C° 0 mm 2 m/S 771 mmHg 90%
    08:00 +3°C° 0 mm 2 m/S 771 mmHg 88%
    09:00 +3°C° 0 mm 3 m/S 771 mmHg 86%
    10:00 +4°C° 0 mm 3 m/S 771 mmHg 81%
    11:00 +5°C° 0 mm 3 m/S 771 mmHg 76%
    12:00 +7°C° 0 mm 3 m/S 771 mmHg 70%
    13:00 +7°C° 0 mm 2 m/S 770 mmHg 69%
    14:00 +7°C° 0 mm 2 m/S 770 mmHg 67%
    15:00 +7°C° 0 mm 2 m/S 769 mmHg 65%
    16:00 +6°C° 0 mm 2 m/S 769 mmHg 69%
    17:00 +6°C° 0 mm 2 m/S 769 mmHg 72%
    18:00 +5°C° 0 mm 2 m/S 769 mmHg 76%
    19:00 +4°C° 0 mm 2 m/S 769 mmHg 78%
    20:00 +4°C° 0 mm 2 m/S 769 mmHg 81%
    21:00 +2°C° 0 mm 3 m/S 769 mmHg 84%
    22:00 +2°C° 0 mm 3 m/S 769 mmHg 86%
    23:00 +2°C° 0 mm 2 m/S 769 mmHg 88%

    22 Februar, Donnerstag

    Zeit Temperatur Niederschläge Wind Luftdruck Luftfeuchtigkeit
    00:00 +2°C° 0 mm 2 m/S 769 mmHg 90%
    01:00 +2°C° 0 mm 2 m/S 768 mmHg 91%
    02:00 +1°C° 0 mm 2 m/S 768 mmHg 91%
    03:00 +1°C° 0 mm 2 m/S 768 mmHg 92%
    04:00 +1°C° 0 mm 2 m/S 768 mmHg 92%
    05:00 +1°C° 0 mm 2 m/S 768 mmHg 93%
    06:00 +1°C° 0 mm 2 m/S 767 mmHg 93%
    07:00 +2°C° 0 mm 2 m/S 767 mmHg 90%
    08:00 +2°C° 0 mm 2 m/S 767 mmHg 87%
    09:00 +3°C° 0 mm 2 m/S 767 mmHg 84%
    10:00 +3°C° 0 mm 3 m/S 767 mmHg 77%
    11:00 +4°C° 0 mm 3 m/S 767 mmHg 70%
    12:00 +5°C° 0 mm 4 m/S 766 mmHg 63%
    13:00 +5°C° 0 mm 4 m/S 766 mmHg 62%
    14:00 +5°C° 0 mm 4 m/S 766 mmHg 61%
    15:00 +5°C° 0 mm 4 m/S 766 mmHg 59%
    16:00 +4°C° 0 mm 3 m/S 766 mmHg 64%
    17:00 +3°C° 0 mm 3 m/S 766 mmHg 69%
    18:00 +2°C° 0 mm 3 m/S 766 mmHg 74%
    19:00 +1°C° 0 mm 3 m/S 766 mmHg 77%
    20:00 +1°C° 0 mm 3 m/S 766 mmHg 80%
    21:00 0°C° 0 mm 3 m/S 766 mmHg 84%
    22:00 0°C° 0 mm 3 m/S 766 mmHg 86%
    23:00 0°C° 0 mm 3 m/S 766 mmHg 88%

    23 Februar, Freitag

    Zeit Temperatur Niederschläge Wind Luftdruck Luftfeuchtigkeit
    00:00 -1°C° 0 mm 3 m/S 766 mmHg 89%
    01:00 -1°C° 0 mm 3 m/S 766 mmHg 90%
    02:00 -1°C° 0 mm 3 m/S 766 mmHg 90%
    03:00 -1°C° 0 mm 2 m/S 766 mmHg 91%
    04:00 -1°C° 0 mm 2 m/S 766 mmHg 91%
    05:00 -1°C° 0 mm 2 m/S 766 mmHg 91%
    06:00 -1°C° 0 mm 2 m/S 766 mmHg 90%
    07:00 -1°C° 0 mm 3 m/S 767 mmHg 85%
    08:00 0°C° 0 mm 3 m/S 767 mmHg 79%
    09:00 0°C° 0 mm 4 m/S 767 mmHg 73%
    10:00 +1°C° 0 mm 4 m/S 767 mmHg 68%
    11:00 +3°C° 0 mm 4 m/S 767 mmHg 63%
    12:00 +4°C° 0 mm 4 m/S 767 mmHg 58%
    13:00 +5°C° 0 mm 4 m/S 766 mmHg 58%
    14:00 +5°C° 0 mm 4 m/S 766 mmHg 58%
    15:00 +5°C° 0 mm 4 m/S 766 mmHg 58%
    16:00 +4°C° 0 mm 4 m/S 766 mmHg 63%
    17:00 +3°C° 0 mm 4 m/S 766 mmHg 69%
    18:00 0°C° 0 mm 4 m/S 766 mmHg 75%
    19:00 0°C° 0 mm 4 m/S 767 mmHg 78%
    20:00 -1°C° 0 mm 4 m/S 767 mmHg 81%
    21:00 -1°C° 0 mm 5 m/S 767 mmHg 83%
    22:00 -2°C° 0 mm 5 m/S 767 mmHg 84%
    23:00 -2°C° 0 mm 5 m/S 768 mmHg 84%
    Mehr zeigen